Location: Dunmow
(51.8833°N, 0.3667°E)
Time: 11:43:21
(UTC+00:00)

Daily predictions for brighter satellites

Satellite Brightness Start Highest point End
(mag) Time Altitude Azimuth Time Altitude Azimuth Time Altitude Azimuth
Centaur D AC-29 4.4 20:39:27 10° S 20:43:46 14° SE 20:51:59 10° ESE
Cosmos 1975 3.9 20:46:20 10° N 20:49:52 30° ENE 20:53:21 10° SE
Cosmos 1992 Rocket 4.3 20:47:49 10° NNW 20:53:01 60° ENE 20:58:10 10° SE
Cosmos 1302 Rocket 4.2 20:52:18 10° NNW 20:57:29 73° WSW 21:02:40 10° SSE
MOS 1 Rocket 3.8 20:54:49 10° SSE 21:00:01 63° ENE 21:05:22 10° N
USA 281 3.7 20:54:53 10° SE 21:01:16 55° NE 21:07:40 10° NNW
NOSS 3-3 (A) 4.5 20:58:31 10° S 21:03:23 33° ESE 21:08:54 10° NE
Cosmos 1536 3.7 21:00:58 10° NNW 21:04:44 46° W 21:08:30 10° SSW
Meteor 1-19 Rocket 4.3 21:01:02 10° S 21:06:49 74° E 21:12:27 10° NNE
NOSS 2-1 (C) 4.1 21:03:26 10° NW 21:07:07 50° SW 21:12:06 10° SSE
Cosmos 1340 2.5 21:05:16 10° NNW 21:08:40 74° W 21:12:02 10° S
Meteor 2-17 Rocket 4.5 21:03:00 10° S 21:08:58 66° E 21:14:59 10° NNE
Cosmos 1943 4.2 21:04:13 10° SW 21:09:44 52° NW 21:15:17 10° NNE
Landsat 4 3.6 21:09:56 10° S 21:13:24 77° WSW 21:16:54 10° NNW
Meteor 2-10 4.5 21:09:28 10° NNW 21:14:53 64° W 21:20:05 10° S
Cosmos 1500 Rocket 4.2 21:12:01 10° NNW 21:16:14 53° W 21:20:24 10° S
Okean-O 4.5 21:12:45 10° SSW 21:16:31 27° W 21:20:19 10° NW
USA 245 3.1 21:14:41 10° S 21:16:57 43° W 21:19:34 10° NNW
NOSS 3-4 (A) 4.3 21:11:09 10° NW 21:17:34 56° NE 21:25:00 10° ESE
NOSS 3-4 (C) 4.3 21:11:15 10° NW 21:17:40 56° NE 21:25:06 10° ESE
Nadezhda 4 Rocket 4.0 21:11:39 10° S 21:17:50 76° E 21:24:09 10° NNE
Spot 2 Rocket 3.6 21:13:04 10° SSE 21:18:07 80° WSW 21:23:12 10° NNW
MetOp-A 4.3 21:14:04 10° SE 21:18:40 55° ENE 21:23:40 10° N
Cosmos 1626 3.0 21:17:57 12° SE 21:20:16 25° E 21:22:59 10° NE
Cosmos 1726 4.4 21:20:39 10° NW 21:22:38 16° W 21:24:37 10° SW
SPOT 5 4.0 21:19:18 10° SSW 21:23:20 34° W 21:27:19 10° NNW
Sich 1 3.7 21:19:32 10° NNW 21:23:49 54° W 21:28:04 10° S
Cosmos 1697 Rocket 3.3 21:20:21 10° NNW 21:25:51 50° NE 21:31:08 11° SE
BREEZE-M DEB (TANK) 3.8 21:16:44 10° SW 21:27:06 40° SSE 21:30:26 10° E
Cosmos 1805 Rocket 4.4 21:23:36 10° NNW 21:27:53 50° W 21:32:08 10° S
Cosmos 1470 Rocket 4.5 21:24:00 10° N 21:28:08 36° ENE 21:31:41 13° SE
Cosmos 1733 4.1 21:26:19 10° NNW 21:29:38 40° W 21:32:55 10° SSW
Cosmos 1633 Rocket 3.3 21:26:47 10° N 21:31:10 57° ENE 21:34:53 14° SSE
IRIDIUM 104 4.5 21:26:51 10° N 21:32:03 62° E 21:36:47 12° SSE
Cosmos 1980 Rocket 3.4 21:30:37 10° NNW 21:35:51 35° NE 21:41:02 10° ESE
NOSS 3-3 (C) 4.0 21:31:35 10° SSW 21:36:49 51° ESE 21:43:01 10° NE
Cosmos 1666 Rocket 3.5 21:32:48 10° N 21:37:08 77° ENE 21:40:50 14° SSE
Lacrosse 5 rocket 2.2 21:34:40 10° WNW 21:38:50 51° NNE 21:42:52 10° E
SL-8 R/B 3.9 21:34:26 10° W 21:39:02 52° S 21:43:38 10° ESE
IRIDIUM 114 4.4 21:35:58 10° N 21:41:13 74° E 21:45:54 13° S
Ariane Rocket 3.6 21:36:31 10° S 21:41:29 54° W 21:46:30 10° NNW
Cosmos 44 Rocket 3.3 21:36:42 10° NW 21:41:43 81° NE 21:45:49 14° SE
Cosmos 1674 4.0 21:44:53 15° SE 21:46:36 21° E 21:49:18 10° NE
USA 234 3.9 21:40:21 10° ENE 21:46:46 59° N 21:53:11 10° W
IRIDIUM 103 4.3 21:45:07 10° N 21:50:23 86° E 21:55:03 13° S
Meteor 2-4 Rocket 3.8 21:47:12 10° S 21:53:08 82° E 21:59:05 10° NNE
ERS-1 Rocket 4.4 21:49:28 10° SSW 21:53:58 33° W 21:58:30 10° NNW
Lacrosse 4 Rocket 2.5 21:50:42 10° NW 21:54:24 33° WSW 21:57:32 13° S
Cosmos 1340 Rocket 4.1 21:50:39 10° SW 21:54:24 40° WNW 21:58:11 10° N
Cosmos 2026 Rocket 4.0 21:49:57 10° S 21:56:14 79° E 22:02:26 10° NNE
SPOT 3 Rocket 4.4 21:51:28 10° S 21:56:23 46° W 22:01:21 10° NNW
Spot 1 4.0 21:52:26 10° NNE 21:56:35 87° ESE 22:00:52 10° SSW
Cosmos 614 Rocket 4.3 21:52:43 10° SSW 21:57:54 70° WNW 22:03:09 10° NNE
Cosmos 1818 3.5 21:54:57 10° SW 22:00:26 83° SE 22:05:57 10° NE
USA 59 Rocket 1.9 21:59:45 10° WNW 22:03:03 23° SW 22:06:49 11° S
Cosmos 1805 4.5 22:00:28 10° NNW 22:03:51 33° W 22:07:12 10° SSW
H-2A R/B 3.6 22:01:54 15° SE 22:04:56 34° ENE 22:08:51 10° N
Cosmos 1607 4.4 21:59:14 10° S 22:05:17 44° ESE 22:11:24 10° NE
Cosmos 1766 3.1 22:03:19 10° N 22:07:06 86° E 22:09:34 20° SSE
Terra 3.5 22:04:04 10° SSW 22:08:03 27° W 22:12:04 10° NW
Cosmos 1833 Rocket 2.8 22:07:45 11° S 22:13:05 57° ESE 22:18:36 10° NE
SL-16 R/B 4.1 22:10:53 10° NNW 22:15:26 24° NE 22:19:57 10° E
ALOS 2 4.1 22:12:16 12° ESE 22:15:30 27° ENE 22:19:11 10° N
Cosmos 1269 Rocket 4.1 22:14:07 10° SSW 22:19:23 83° WNW 22:24:43 10° NNE
Cosmos 1470 2.8 22:17:54 10° N 22:21:36 60° ENE 22:23:37 24° SSE
Landsat 5 4.0 22:19:38 10° N 22:23:20 52° WNW 22:27:05 10° SSW
S3M 4.4 22:18:15 10° N 22:24:33 55° ENE 22:29:12 18° SSE
Cosmos 1975 4.4 22:22:17 10° NNW 22:25:41 28° W 22:28:58 10° SSW
Cosmos 2082 Rocket 3.4 22:23:57 18° SE 22:26:36 25° ESE 22:31:10 10° NE
Cosmos 2251 Rocket 4.2 22:24:49 20° SSE 22:27:45 36° ESE 22:32:33 10° NE
Cosmos 1553 Rocket 4.0 22:24:34 10° NNW 22:30:41 83° W 22:35:15 19° S
GEOS 3 Rocket 3.6 22:32:23 10° NE 22:37:31 59° SE 22:42:28 11° SSW
Cosmos 1908 3.2 22:33:58 10° N 22:37:31 61° ENE 22:39:14 28° SSE
Cosmos 724 4.3 22:34:34 11° SSW 22:40:03 59° ESE 22:45:47 10° NE
ARIANE 5 R/B 2.7 22:40:25 23° S 22:43:02 71° WSW 22:47:21 10° NNW
Cosmos 2315 Rocket 4.4 22:38:56 10° N 22:45:08 54° ENE 22:49:34 19° SE
USA 281 4.0 22:41:02 16° S 22:45:57 41° WSW 22:52:09 10° NW
H-2A R/B 4.1 22:45:21 10° NE 22:47:58 15° E 22:49:42 13° ESE
CZ-2C R/B 3.6 22:46:13 10° NNE 22:50:43 85° WNW 22:53:46 20° SSW
Cosmos 1023 Rocket 4.5 22:48:16 15° SSW 22:52:39 89° ESE 22:57:53 10° NNE
Cosmos 2285 Rocket 4.0 22:48:47 17° S 22:53:40 71° ESE 23:00:01 10° NNE
Cosmos 1626 3.9 22:51:09 10° SW 22:53:45 22° WNW 22:56:24 10° NNW
NOSS 3-3 (A) 4.3 22:48:09 10° WSW 22:53:47 66° NW 23:00:29 10° NE
Cosmos 1346 Rocket 4.4 22:53:22 10° N 22:56:38 25° ENE 22:58:57 15° ESE
Cosmos 1515 Rocket 3.8 22:54:04 19° SSW 22:57:07 63° WNW 23:01:26 10° N
Meteor 1-22 Rocket 4.2 22:52:20 10° N 22:57:42 71° ENE 23:01:09 23° SSE
Cosmos 1140 Rocket 3.5 22:54:16 15° SSW 22:58:36 87° WNW 23:03:51 10° NNE
Cosmos 1733 Rocket 4.0 22:56:38 10° N 23:00:41 37° ENE 23:03:12 20° SE
Spot 4 3.8 22:58:19 25° SSE 23:01:07 88° ENE 23:05:55 10° NNW
BREEZE-M DEB (TANK) 4.4 22:56:27 10° SW 23:01:18 57° SE 23:21:28 10° ENE
Cosmos 1707 2.6 23:00:27 27° SSW 23:02:18 79° WNW 23:05:57 10° N
Spot 2 4.4 23:01:25 25° SSE 23:04:19 79° ENE 23:09:21 10° NNW
PSLV R/B 3.9 23:00:18 10° NNE 23:04:22 78° WNW 23:06:48 23° SSW
Cosmos 1400 Rocket 3.8 23:02:59 25° SE 23:04:29 34° E 23:08:05 10° NNE
Cosmos 1300 3.5 23:01:43 10° N 23:05:06 38° ENE 23:06:40 24° SE
Cosmos 2266 Rocket 4.0 23:02:10 22° S 23:06:24 78° E 23:12:44 10° NNE
Cosmos 1869 Rocket 3.5 23:03:20 10° NNW 23:07:43 79° W 23:10:01 28° S
NOSS 3-4 (A) 4.1 23:02:01 10° NW 23:08:38 53° SW 23:13:38 22° SSE
NOSS 3-4 (C) 4.1 23:02:07 10° NW 23:08:44 54° SW 23:13:46 22° SSE
Cosmos 1697 Rocket 3.7 23:04:35 10° NW 23:09:39 35° WSW 23:12:51 20° SSW
Cosmos 2322 Rocket 3.7 23:05:29 10° NNW 23:10:32 32° NE 23:15:35 10° ESE
Cosmos 1441 Rocket 3.0 23:07:06 10° NNW 23:10:40 73° W 23:12:05 34° S
Cosmos 841 Rocket 4.4 23:06:48 10° NNW 23:11:48 42° NE 23:16:05 14° SE
Meteor 1-15 Rocket 4.2 23:07:50 10° NNW 23:13:29 89° W 23:16:53 25° S
OPS 6432 4.3 23:10:48 10° NW 23:13:54 56° SW 23:14:38 42° S
In-Cosmos 22 4.2 23:12:55 23° S 23:16:36 79° E 23:22:18 10° NNE
Lacrosse 5 rocket 1.4 23:13:09 10° WNW 23:17:17 57° SW 23:19:04 30° SSE
Cosmos 1980 Rocket 2.5 23:14:33 10° NW 23:20:09 57° WSW 23:23:22 25° S
Cosmos 1674 3.9 23:18:27 16° SW 23:20:44 31° WNW 23:23:55 10° N
Cosmos 2228 Rocket 3.6 23:19:14 27° SSE 23:21:20 48° E 23:25:43 10° NNE
Cosmos 1842 4.3 23:19:04 17° SW 23:21:25 37° WNW 23:24:53 10° N
Cosmos 2333 Rocket 3.8 23:21:00 10° NNW 23:26:04 31° NE 23:31:09 10° ESE
Cosmos 540 Rocket 3.4 23:22:23 10° NNW 23:27:35 79° WSW 23:30:29 27° SSE
Cosmos 1356 Rocket 4.3 23:27:09 26° SE 23:28:46 36° E 23:32:37 10° NNE
USA 234 3.7 23:22:57 10° E 23:29:26 65° NNE 23:35:54 10° WNW
Cosmos 1953 4.0 23:26:31 10° NNE 23:29:47 25° ENE 23:32:08 15° ESE
Cosmos 1763 Rocket 3.7 23:24:46 10° NNW 23:30:00 58° WSW 23:32:48 26° S
Cosmos 1655 Rocket 4.0 23:26:16 23° S 23:30:26 82° E 23:36:52 10° NNE
BREEZE-M DEB (TANK) 3.4 23:30:23 10° W 23:37:30 - SE 23:31:43 26° SW
Cosmos 468 Rocket 4.0 23:27:30 10° NNW 23:32:49 78° WSW 23:35:47 26° SSE
GP-B 3.1 23:31:45 10° N 23:36:10 71° E 23:38:18 30° SSE
SL-14 R/B 3.3 23:36:11 34° SSE 23:37:39 63° E 23:41:26 10° NNE
H-2A R/B 3.7 23:37:53 21° SW 23:39:53 31° W 23:43:45 10° NNW
Cosmos 407 Rocket 3.9 23:36:25 15° SW 23:40:41 62° WNW 23:45:53 10° NNE
Cosmos 1455 3.7 23:38:26 10° NNE 23:41:20 24° ENE 23:43:13 16° ESE
CZ-3 Stage 3 4.5 23:28:45 10° WSW 23:41:52 21° SSW 23:43:39 20° S
Cosmos 1862 Rocket 3.8 23:42:08 30° SSE 23:44:04 57° E 23:48:21 10° NNE
Aureole 3 3.4 23:44:34 35° SE 23:45:16 41° E 23:48:26 10° NNE
RESURS DK-1 4.1 23:43:00 10° NNW 23:46:36 29° NE 23:50:10 10° ESE
SJ 16-02 3.7 23:46:23 10° ESE 23:47:25 11° E 23:48:28 10° ENE
Cosmos 676 Rocket 4.2 23:44:45 27° S 23:47:35 61° ESE 23:52:51 10° NNE
Cosmos 2369 4.2 23:42:23 10° NW 23:47:50 46° WSW 23:50:47 25° S
Cosmos 1954 Rocket 4.0 23:45:26 26° S 23:48:28 73° ESE 23:53:46 10° NNE
ALOS 2 3.2 23:49:40 27° SSW 23:51:39 44° W 23:55:53 10° NNW
Cosmos 1190 Rocket 4.1 23:51:06 22° SSW 23:54:36 80° WNW 23:59:56 10° NNE
Cosmos 1758 3.6 23:52:01 10° NNW 23:55:46 52° W 23:57:14 32° SSW
